DW5508 Weather Reports


Display with metric or nautical units.
time (UTC)temp
F
wind
direction
speed
MPH
gust
MPH
rain 1hr
in
rain 24hr
in
rain mn
in
humidity
%
barometer
mb
20191210104640 27 221 0.0 0.0 0.00 0.01 0.00 87 1023.8
20191210103225 27 221 0.0 0.0 0.00 0.01 0.00 88 1023.9
20191210101640 27 219 0.0 0.0 0.00 0.01 0.00 90 1024.0
20191210100126 25 266 0.0 0.0 0.00 0.01 0.00 90 1024.0
20191210094732 25 266 0.0 0.0 0.00 0.01 0.00 90 1024.0
20191210093139 25 270 0.0 0.0 0.00 0.01 0.00 90 1024.2
20191210091709 25 270 0.0 0.0 0.00 0.01 0.00 90 1024.2
20191210090036 25 270 0.0 0.0 0.00 0.01 0.00 92 1024.2
20191210084609 24 270 0.0 0.0 0.00 0.01 0.00 90 1024.1
20191210083130 24 270 0.0 0.0 0.00 0.01 0.00 90 1024.2
20191210081546 24 270 0.0 0.0 0.00 0.01 0.00 90 1024.2
20191210080120 24 270 0.0 0.0 0.00 0.01 0.00 89 1024.2
20191210074534 25 270 0.0 0.0 0.00 0.02 0.00 90 1024.1
20191210073022 25 270 0.0 0.0 0.00 0.02 0.00 90 1024.2
20191210071554 25 270 0.0 0.0 0.00 0.02 0.00 90 1024.1
20191210070106 24 270 0.0 0.0 0.00 0.02 0.00 89 1024.0
20191210064527 25 269 0.0 0.0 0.00 0.02 0.02 89 1023.7
20191210063022 25 269 0.0 0.0 0.00 0.02 0.02 89 1023.5
20191210061609 25 270 0.0 0.0 0.00 0.02 0.02 87 1023.4
20191210060053 26 270 0.0 0.0 0.00 0.02 0.02 88 1023.2
20191210054526 26 270 0.0 0.0 0.00 0.02 0.02 88 1023.1
20191210053010 26 269 0.0 0.0 0.00 0.02 0.02 87 1023.2
20191210051506 26 270 0.0 0.0 0.00 0.02 0.02 86 1023.2
20191210050005 27 270 0.0 0.0 0.00 0.02 0.02 87 1023.3
20191210044504 26 270 0.0 0.0 0.00 0.02 0.02 84 1023.1
20191210043212 27 270 0.0 0.0 0.00 0.02 0.02 84 1023.2
20191210041733 28 270 0.0 0.0 0.00 0.02 0.02 84 1023.1
20191210040152 28 270 0.0 0.0 0.00 0.02 0.02 83 1022.8
20191210034719 29 270 0.0 0.0 0.00 0.03 0.02 84 1022.8
20191210033218 29 300 0.0 0.0 0.00 0.03 0.02 82 1022.7
20191210031617 29 300 0.0 0.0 0.00 0.03 0.02 83 1022.7
20191210030150 29 300 0.0 0.0 0.00 0.03 0.02 84 1022.7
20191210024641 29 300 0.0 0.0 0.00 0.06 0.02 84 1022.6
20191210023135 29 300 0.0 0.0 0.00 0.06 0.02 82 1022.7
20191210021641 31 300 0.0 0.0 0.00 0.06 0.02 81 1022.7
20191210020053 32 300 0.0 0.0 0.00 0.06 0.02 79 1022.5
20191210014619 33 301 0.0 0.0 0.00 0.07 0.02 80 1022.3
20191210013052 33 316 0.0 0.0 0.00 0.07 0.02 81 1022.0
20191210011554 33 289 0.0 0.0 0.00 0.07 0.02 81 1022.0
20191210010051 34 326 0.0 0.0 0.00 0.07 0.02 81 1021.9
20191210004554 34 322 0.0 1.0 0.00 0.08 0.02 80 1021.7
20191210003059 34 309 0.0 0.0 0.00 0.08 0.02 79 1021.2
20191210001541 35 309 0.0 0.0 0.00 0.08 0.02 77 1020.8
20191210000122 36 309 0.0 0.0 0.00 0.08 0.02 76 1020.7
20191209234529 37 281 0.0 0.0 0.00 0.09 0.02 74 1020.7
20191209233042 38 14 0.0 2.0 0.00 0.09 0.02 73 1020.7
20191209231553 38 334 0.0 4.0 0.00 0.09 0.02 71 1020.9
20191209230105 39 288 1.0 5.0 0.00 0.09 0.02 67 1021.1
20191209224610 39 312 1.0 6.0 0.00 0.13 0.02 64 1021.0
20191209223027 39 323 1.0 8.0 0.00 0.13 0.02 64 1020.8
20191209221545 40 291 0.0 5.0 0.00 0.13 0.02 62 1020.8
20191209220033 40 304 1.0 8.0 0.00 0.13 0.02 60 1020.7
20191209214518 40 351 0.0 5.0 0.00 0.17 0.02 61 1020.4
20191209213016 40 19 0.0 3.0 0.00 0.17 0.02 61 1020.1
20191209211527 40 281 0.0 4.0 0.00 0.17 0.02 61 1020.0
20191209210038 39 357 0.0 4.0 0.00 0.17 0.02 63 1020.0
20191209204520 40 357 0.0 5.0 0.00 0.23 0.02 63 1020.0
20191209203044 40 321 0.0 4.0 0.00 0.23 0.02 65 1019.9
20191209201551 41 297 2.0 6.0 0.00 0.23 0.02 63 1020.0
20191209200007 40 354 0.0 4.0 0.00 0.23 0.02 67 1020.3
20191209194505 40 358 0.0 4.0 0.00 0.27 0.02 67 1020.2
20191209193005 40 294 0.0 2.0 0.00 0.27 0.02 69 1020.3
20191209191649 40 323 0.0 5.0 0.00 0.27 0.02 69 1020.5
20191209190244 39 360 0.0 2.0 0.00 0.27 0.02 74 1020.6
20191209184616 39 49 0.0 5.0 0.00 0.27 0.02 74 1020.6
20191209183119 39 1 0.0 2.0 0.00 0.27 0.02 75 1020.7
20191209181653 39 294 0.0 4.0 0.00 0.27 0.02 74 1020.7
20191209180141 39 345 0.0 0.0 0.00 0.27 0.02 76 1020.7
20191209174636 37 312 0.0 0.0 0.00 0.27 0.02 80 1020.7
20191209171656 37 290 0.0 0.0 0.00 0.27 0.02 81 1020.3
20191209170233 36 321 0.0 0.0 0.00 0.27 0.02 81 1020.4
20191209164543 37 359 0.0 1.0 0.00 0.27 0.02 80 1020.0
20191209163142 36 15 0.0 1.0 0.00 0.27 0.02 80 1019.8
20191209161554 36 304 0.0 2.0 0.00 0.27 0.02 81 1019.7
20191209160054 36 345 0.0 4.0 0.00 0.27 0.02 81 1019.4
20191209154607 36 328 0.0 0.0 0.00 0.27 0.02 82 1019.1
20191209153053 36 315 0.0 0.0 0.00 0.27 0.02 84 1018.8
20191209151619 36 290 0.0 0.0 0.00 0.27 0.02 85 1018.7
20191209150105 35 293 0.0 0.0 0.00 0.27 0.02 85 1018.7
20191209144613 35 281 0.0 1.0 0.00 0.27 0.02 86 1018.5
20191209143026 35 306 0.0 0.0 0.00 0.27 0.02 86 1018.4
20191209141540 35 300 0.0 0.0 0.00 0.27 0.02 86 1018.3
20191209140037 35 318 0.0 0.0 0.00 0.27 0.02 86 1018.3
20191209134530 35 319 0.0 0.0 0.00 0.28 0.02 86 1018.2
20191209133019 36 321 0.0 0.0 0.00 0.28 0.02 85 1017.9
20191209131522 36 314 0.0 1.0 0.00 0.28 0.02 84 1017.8
20191209130028 36 359 0.0 1.0 0.00 0.28 0.02 84 1017.8
20191209124514 36 329 0.0 0.0 0.01 0.28 0.02 84 1017.7
20191209123019 36 312 0.0 2.0 0.01 0.28 0.02 84 1017.6
20191209121513 36 317 0.0 7.0 0.01 0.28 0.02 85 1017.5
20191209120008 36 316 0.0 4.0 0.01 0.28 0.02 85 1017.3
20191209114508 36 309 0.0 4.0 0.00 0.28 0.01 85 1017.2
20191209113003 36 340 0.0 3.0 0.00 0.28 0.01 87 1017.1
20191209111503 35 1 0.0 0.0 0.00 0.28 0.01 89 1017.0
20191209110149 36 328 0.0 0.0 0.00 0.28 0.01 90 1016.9